502  
ASUS46 KLOX 281004  
RWRCA  
 
SOUTHERN CALIFORNIA WEATHER ROUNDUP  
NATIONAL WEATHER SERVICE OXNARD CALIFORNIA  
300 AM PDT FRI APR 28 2017  
 
NOTE: "FAIR" INDICATES FEW OR NO CLOUDS BELOW 12,000 FEET WITH NO  
SIGNIFICANT WEATHER AND/OR S TO VISIBILITY
.  
 
- STATIONS PRECEEDED BY AN ASTERISK (*) ARE NOT NWS OR FAA  
STATIONS AND ARE NOT SUBJECT TO NWS AND FAA QUALITY CONTROL.
 
 
CAZ041-042-087-281100-  
LA AND ORANGE COUNTY COASTAL AREAS  
 
 
CITY SKY/WX TMP DP RH WIND PRES REMARKS
 
L.A. DOWNTOWN CLEAR 73 31 21 NW13G25 29.71F  
L.A. AIRPORT PTCLDY 71 31 22 N13G29 29.71F  
LONG BEACH CLEAR 63 54 72 S12 29.71F  
 
CITY SKY/WX TMP DP RH WIND PRES REMARKS
 
AVALON N/A 72 N/A N/A NW2 N/A  
FULLERTON CLEAR 62 55 77 E7 29.71S  
*GETTY CENTER N/A 63 32 31 N20G38 N/A  
HAWTHORNE CLEAR 71 29 21 N10G20 29.70F  
*LEO CARRILLO N/A 60 43 54 W8 N/A  
*LOS ALAMITOS FAIR 61 55 79 E3 29.71F  
*REDONDO BEACH N/A 70 32 25 NW3 29.72S  
SANTA ANA CLEAR 61 55 81 CALM 29.73S  
STA MONICA APT CLEAR 70 32 24 N20G35 29.71F  
*UCLA N/A 68 30 24 NW22G31 29.71F  
 

 
 
CAZ547-548-048-281100-  
LA COUNTY VALLEYS AND INLAND EMPIRE  
 
 
CITY SKY/WX TMP DP RH WIND PRES REMARKS
 
BURBANK CLEAR 67 32 27 NW9G20 29.76S  
VAN NUYS CLEAR 66 33 29 N21G28 29.77F  
 
CITY SKY/WX TMP DP RH WIND PRES REMARKS
 
CORONA AIRPORT SUNNY 59 51 75 SE8 29.73S  
*CHATSWORTH N/A 65 36 34 N12 29.76R  
CHINO CLEAR 54 47 77 N3 29.74R  
*CLAREMONT N/A 54 46 73 N2 N/A  
MARCH AFB CLEAR 53 53 99 SE6 29.74F  
*NORTHRIDGE N/A 66 28 24 NW9G30 N/A  
ONTARIO PTCLDY 56 44 64 E3 29.73S  
*PASADENA N/A 68 34 28 NE3 N/A  
RIVERSIDE CLEAR 59 50 72 CALM 29.73S  
SAN BERNARDINO FAIR 62 47 60 CALM 29.74S  
*SAN RAFAEL HI N/A 62 29 28 NW14G28 N/A  
*SAUGUS N/A 59 33 37 N8G20 N/A  
*WHITEMAN AP NOT AVBL  
*WHITTIER HILL N/A 66 31 27 NW9G26 N/A  
*WOODLAND HILL N/A 66 34 30 N15G23 N/A  
 

 
 
CAZ054-055-281100-  
LA AND SAN BERNARDINO COUNTY MOUNTAINS  
 
 
CITY SKY/WX TMP DP RH WIND PRES REMARKS
 
*ACTON N/A 52 28 39 NE2 N/A  
*BIG BEAR AIRP SUNNY 41 19 42 CALM 29.93F  
*BIG PINES N/A 45 15 29 CALM N/A  
*CHILAO N/A 46 24 42 SE5 N/A  
SANDBERG CLOUDY 47 34 60 N10G25 29.90S  
*WARM SPRINGS N/A 52 52 100 NW15G46 N/A  
 

 
 
CAZ028-029-059-060-099-281100-  
ANTELOPE VALLEY AND SURROUNDING AREAS  
 
 
CITY SKY/WX TMP DP RH WIND PRES REMARKS
 
LANCASTER CLEAR 59 28 30 W18G31 29.82S  
PALMDALE CLEAR 58 28 32 NW9 29.84F  
*POPPY PARK N/A 54 33 44 SW5G24 N/A  
 
CITY SKY/WX TMP DP RH WIND PRES REMARKS
 
29 PALMS PTCLDY 64 25 22 NW24G37 29.79R  
BARSTOW/DAGGET CLEAR 61 29 29 W21 29.77S  
BISHOP CLEAR 49 17 28 NW22G31 29.91S  
CHINA LAKE PTCLDY 65 23 20 NW13 29.76R  
EDWARDS AFB CLEAR 57 32 38 W24G32 29.79F  
MOJAVE CLEAR 54 34 47 SW12G29 29.84F  
NEEDLES PTCLDY 75 13 9 N17G26 29.64R  
VICTORVILLE CLEAR 55 23 28 NW22G35 29.81F  
 

 
 
CAZ039-040-281100-  
VENTURA AND SANTA BARBARA COUNTY COAST  
 
 
CITY SKY/WX TMP DP RH WIND PRES REMARKS
 
CAMARILLO CLEAR 58 47 66 NE6 29.77S  
NWS OXNARD N/A 56 46 70 CALM 29.76S  
OXNARD AIRPORT CLEAR 58 48 69 CALM 29.76S  
*POINT MUGU CLEAR 59 46 62 W3 29.77S  
SBA APT/GOLETA CLEAR 62 39 42 NW8 29.78F  
*SANTA BARBARA N/A 66 33 30 CALM 29.84S  
*VENTURA N/A 55 47 74 N2 29.74F  
 

 
 
CAZ044-045-281100-  
VENTURA COUNTY VALLEYS  
 
 
CITY SKY/WX TMP DP RH WIND PRES REMARKS
 
*SIMI VALLEY N/A 64 37 36 NE2 29.71F  
*WESTLAKE VILL N/A 53 42 66 S1 29.74S  
*OJAI N/A 57 43 60 NE1 29.69S  
*FILLMORE N/A 51 45 79 NW1 29.80S  
 

 
 
CAZ053-281100-  
VENTURA COUNTY MOUNTAINS  
 
 
CITY SKY/WX TMP DP RH WIND PRES REMARKS
 
*LOCKWOOD VLY N/A 45 21 39 MISG N/A  
*ROSE VALLEY N/A 59 25 27 MISG N/A  
 

 
 
CAZ034-035-036-281100-  
CENTRAL COAST AND SANTA YNEZ VALLEY  
 
 
CITY SKY/WX TMP DP RH WIND PRES REMARKS
 
SAN LUIS OBISP CLEAR 53 45 74 W13G21 29.93F  
SANTA MARIA CLEAR 49 46 90 NW7 29.93F  
 
CITY SKY/WX TMP DP RH WIND PRES REMARKS
 
*CAL POLY SLO N/A 59 41 51 NW12 N/A  
*LOMPOC CLEAR 51 45 79 W9 29.90F  
*PISMO BEACH N/A 58 42 56 NW5 29.91F  
*SANTA YNEZ FAIR 55 37 50 NW13G18 29.85F  
 

 
 
CAZ037-038-051-281100-  
SAN LUIS OBISPO COUNTY INTERIOR AND CUYAMA VALLEY  
 
 
CITY SKY/WX TMP DP RH WIND PRES REMARKS
 
*CUYAMA N/A 50 37 61 CALM 29.87F  
PASO ROBLES CLEAR 49 40 71 NW12 29.96F  
 

 
 
CAZ032-033-061-281100-  
SOUTHERN DESERTS  
 
 
CITY SKY/WX TMP DP RH WIND PRES REMARKS
 
BLYTHE MOCLDY 76 37 24 NW16G26 29.60R  
IMPERIAL CLEAR 68 45 43 W5 29.58S  
PALM SPRINGS CLEAR 75 40 28 NW17G28 29.61R  
THERMAL CLEAR 76 37 24 NW15 29.56S  
 

 
 
ELSEWHERE ACROSS THE WESTERN UNITED STATES AND MEXICO  
 
 
CITY SKY/WX TMP DP RH WIND PRES REMARKS
 
DENVER, CO PTCLDY 37 20 50 W7 29.61S WCI 32  
GRAND CANYON, CLOUDY 43 16 33 SW5 29.80S  
HONOLULU, HI MOCLDY 74 65 73 N5 30.03F  
KAHULUI, MAUI PTCLDY 70 67 90 S5 30.02F  
LAKE TAHOE, CA CLEAR 30 25 81 CALM 30.02F  
LAS VEGAS, NV MOCLDY 65 10 11 NE20G25 29.75R  
MAMMOTH LAKES, FAIR 32 20 60 W8 30.00S WCI 25  
MEXICO CITY, M CLOUDY 63 36 36 S5 30.17S  
PHOENIX, AZ CLOUDY 77 45 32 W18G26 29.56S  
PORTLAND, OR MOCLDY 41 37 86 W3 30.29R  
RENO, NV CLEAR 42 19 39 N14 30.05R WCI 35  
SALT LAKE CITY CLOUDY 37 30 75 SE5 29.86F WCI 33  
SAN DIEGO, CA MOCLDY 62 59 90 S8 29.77F  
SAN FRANCISCO, CLEAR 51 44 77 W10 30.03F  
SAN JOSE, CA CLEAR 52 42 69 N3 30.04S  
SEATTLE, WA CLOUDY 45 41 86 S8 30.24R  
TIJUANA, MEX PTCLDY 57 52 82 CALM 29.78  
 

 
 
STATION/POSITION TIME TEMP WIND PRES VSBY WAVE
 
AIR SEA DIR/SP/G HT/PER  
(UTC) (F) (DEG/KT/KT) (MB) (MI) (FT/S)  
POINT ARGUELLO B NOT AVBL  
WEST SANTA BARBA 0850 53 50 330/ 27/ 33 1011.5F 12/ 9  
POINT CONCEPTION NOT AVBL  
EAST SANTA BARBA 0940 300/ 19/ 25 1008.8F  
SANTA MONICA BAY 0940 61 61 290/ 16/ 19 1007.5S  
 
CLICK HERE TO GO TO PREVIOUS BULLETINS.

The Nexlab CA Page Main Text Page